Alabaster, AL

11:02 AM CDT on October 23, 2017 (GMT -0500)
Shelby County

Weather History for KEET - December, 2013

Change the Weather History Date:

Wednesday, December 4, 2013

  Actual Average Record
Temperature  
Mean Temperature 69 °F 49 °F  
Max Temperature 75 °F 59 °F 79 °F (1998)
Min Temperature 63 °F 39 °F 17 °F (1979)
Degree Days  
Heating Degree Days 0 16  
Month to date heating degree days 30 62  
Since 1 July heating degree days 486 506  
Cooling Degree Days 4    
Growing Degree Days 20 (Base 50)    
Moisture  
Dew Point 64 °F    
Average Humidity 85    
Maximum Humidity 100    
Minimum Humidity 69    
Precipitation  
Precipitation T in 0.17 in 2.37 in (1964)
Month to date precipitation 0.09 0.64  
Year to date precipitation 55.26 50.52  
Snow  
Snow 0.00 in - - ()
Month to date snowfall 0.0  
Since 1 July snowfall 0.0  
Snow Depth 0.00 in    
Sea Level Pressure  
Sea Level Pressure 29.92 in    
Wind  
Wind Speed 6 mph (South)    
Max Wind Speed 14 mph    
Max Gust Speed 19 mph    
Visibility 8 miles    
Events      
T = Trace of Precipitation, MM = Missing Value Source: NWS Daily Summary

Daily Weather History Graph

Daily Weather History Graph

Search for Another Location

Airport or City:

Trip Planner

Search our weather history database for the weather conditions in past years. The results will help you decide how hot, cold, wet, or windy it might be!

Date:

Astronomy

Dec. 04, 2013 Rise Set
Actual Time 6:35 AM CST 4:39 PM CST
Civil Twilight 6:08 AM CST 5:06 PM CST
Nautical Twilight 5:37 AM CST 5:37 PM CST
Astronomical Twilight 5:07 AM CST 6:07 PM CST
Moon 8:04 AM CST (12/4) 6:47 PM CST (12/4)
Length of Visible Light 10h 58m
Length of Day
10h 04m
Waxing Crescent, 4% of the Moon is Illuminated
Dec 4
Waxing Crescent
Dec 9
First Quarter
Dec 17
Full
Dec 25
Last Quarter
Jan 1
New

Hourly Weather History & Observations

Time (CST) Temp. Dew Point Humidity Pressure Visibility Wind Dir Wind Speed Gust Speed Precip Events Conditions
12:53 AM 64.0 °F 63.0 °F 96% 29.86 in 7.0 mi South 4.6 mph - 0.00 in   Overcast
1:01 AM 64.0 °F 63.0 °F 96% 29.86 in 7.0 mi South 5.8 mph - N/A   Overcast
1:40 AM 64.0 °F 63.0 °F 96% 29.86 in 8.0 mi South 4.6 mph - N/A   Overcast
1:53 AM 64.0 °F 63.0 °F 96% 29.86 in 9.0 mi South 6.9 mph - N/A   Overcast
2:30 AM 64.0 °F 63.0 °F 96% 29.87 in 9.0 mi SSE 5.8 mph - N/A   Overcast
2:53 AM 64.0 °F 63.0 °F 96% 29.86 in 9.0 mi South 6.9 mph - N/A   Overcast
3:23 AM 64.9 °F 63.0 °F 93% 29.87 in 8.0 mi South 4.6 mph - N/A   Overcast
3:53 AM 64.0 °F 63.0 °F 96% 29.86 in 9.0 mi South 4.6 mph - N/A   Overcast
4:08 AM 64.9 °F 63.0 °F 93% 29.88 in 8.0 mi South 3.5 mph - N/A   Overcast
4:30 AM 64.9 °F 63.0 °F 93% 29.89 in 9.0 mi SSW 5.8 mph - N/A   Overcast
4:53 AM 64.9 °F 63.0 °F 93% 29.88 in 9.0 mi South 3.5 mph - N/A   Overcast
5:34 AM 64.9 °F 63.0 °F 93% 29.91 in 8.0 mi South 3.5 mph - N/A   Overcast
5:43 AM 64.9 °F 63.0 °F 93% 29.91 in 8.0 mi South 3.5 mph - N/A   Overcast
5:53 AM 64.9 °F 63.0 °F 93% 29.91 in 8.0 mi South 3.5 mph - N/A   Overcast
6:53 AM 64.9 °F 63.0 °F 93% 29.92 in 6.0 mi South 4.6 mph - N/A   Overcast
7:30 AM 64.9 °F 64.0 °F 97% 29.94 in 6.0 mi SSE 5.8 mph - N/A   Overcast
7:53 AM 66.0 °F 64.0 °F 93% 29.95 in 7.0 mi SSE 4.6 mph - N/A   Overcast
8:27 AM 66.9 °F 64.0 °F 90% 29.97 in 7.0 mi South 5.8 mph - N/A   Overcast
8:43 AM 66.9 °F 64.0 °F 90% 29.97 in 7.0 mi South 4.6 mph - N/A   Overcast
8:53 AM 68.0 °F 64.9 °F 90% 29.97 in 7.0 mi South 4.6 mph - N/A   Overcast
9:33 AM 68.0 °F 64.9 °F 90% 29.97 in 6.0 mi South 8.1 mph - N/A   Overcast
9:40 AM 69.1 °F 64.0 °F 84% 29.97 in 6.0 mi South 8.1 mph - N/A   Haze
9:53 AM 69.1 °F 64.9 °F 87% 29.96 in 6.0 mi South 6.9 mph - N/A   Overcast
10:42 AM 69.1 °F 64.9 °F 87% 29.96 in 6.0 mi South 10.4 mph 17.3 mph N/A   Overcast
10:53 AM 69.1 °F 64.9 °F 87% 29.95 in 5.0 mi South 8.1 mph - N/A   Overcast
11:53 AM 71.1 °F 64.9 °F 81% 29.92 in 5.0 mi SSW 8.1 mph - N/A   Haze
12:53 PM 73.9 °F 64.9 °F 73% 29.89 in 6.0 mi South 11.5 mph - N/A   Haze
1:14 PM 73.9 °F 64.9 °F 73% 29.90 in 6.0 mi South 10.4 mph - N/A   Haze
1:53 PM 75.0 °F 64.0 °F 69% 29.87 in 7.0 mi South 10.4 mph - N/A   Scattered Clouds
2:53 PM 75.0 °F 64.0 °F 69% 29.87 in 7.0 mi South 8.1 mph - N/A   Partly Cloudy
3:53 PM 73.0 °F 64.0 °F 73% 29.88 in 8.0 mi South 5.8 mph - N/A   Mostly Cloudy
4:53 PM 71.1 °F 64.0 °F 78% 29.90 in 9.0 mi SE 3.5 mph - N/A   Overcast
5:53 PM 70.0 °F 64.9 °F 84% 29.91 in 8.0 mi Calm Calm - N/A   Mostly Cloudy
6:53 PM 68.0 °F 64.9 °F 90% 29.93 in 7.0 mi SE 3.5 mph - N/A   Clear
7:53 PM 66.9 °F 64.9 °F 93% 29.94 in 8.0 mi SSE 5.8 mph - N/A   Partly Cloudy
8:03 PM 66.0 °F 64.9 °F 96% 29.95 in 8.0 mi SSE 6.9 mph - N/A   Scattered Clouds
8:13 PM 66.9 °F 64.9 °F 93% 29.95 in 9.0 mi SSE 9.2 mph - N/A   Mostly Cloudy
8:53 PM 68.0 °F 66.0 °F 93% 29.96 in 10.0 mi South 10.4 mph - N/A   Overcast
9:53 PM 69.1 °F 66.9 °F 93% 29.97 in 10.0 mi South 8.1 mph - N/A   Overcast
10:35 PM 69.1 °F 66.9 °F 93% 29.99 in 10.0 mi South 6.9 mph - N/A   Overcast
10:53 PM 69.1 °F 66.9 °F 93% 29.99 in 10.0 mi South 8.1 mph - N/A   Overcast
11:53 PM 69.1 °F 66.9 °F 93% 29.97 in 10.0 mi SSE 4.6 mph - N/A   Overcast